Dallas/Ft Worth, TX

2:17 AM CST on November 21, 2019 (GMT -0600)
Dallas-Fort Worth International

Weather History for KDFW - September, 2019

Change the Weather History Date:

Friday, September 27, 2019

  Actual Average Record
Temperature  
Mean Temperature 84 °F 74 °F  
Max Temperature 93 °F 84 °F 103 °F (1953)
Min Temperature 73 °F 63 °F 40 °F (1942)
Degree Days  
Heating Degree Days 0 1  
Month to date heating degree days 0 1  
Since 1 July heating degree days 0 1  
Cooling Degree Days 18 9  
Month to date cooling degree days 559 369  
Year to date cooling degree days 2761 2551  
Growing Degree Days 34 (Base 50)    
Moisture  
Dew Point 66 °F    
Average Humidity 56    
Maximum Humidity 79    
Minimum Humidity 31    
Precipitation  
Precipitation 0.00 in 0.08 in 2.98 in (1936)
Month to date precipitation T 2.33  
Year to date precipitation 27.13 26.44  
Sea Level Pressure  
Sea Level Pressure 29.77 in    
Wind  
Wind Speed 13 mph ()    
Max Wind Speed 24 mph    
Max Gust Speed 30 mph    
Visibility 10.0 miles    
Events      
T = Trace of Precipitation, MM = Missing Value Source: Averaged Metar Reports

Daily Weather History Graph

Daily Weather History Graph

Search for Another Location

Airport or City:

Astronomy

Sep. 27, 2019 Rise Set
Actual Time 7:19 AM CDT 7:18 PM CDT
Civil Twilight 6:54 AM CDT 7:42 PM CDT
Nautical Twilight 6:26 AM CDT 8:11 PM CDT
Astronomical Twilight 5:57 AM CDT 8:40 PM CDT
Moon 5:51 AM CDT (9/27) 7:03 PM CDT (9/27)
Length of Visible Light 12h 48m
Length of Day
11h 58m
Waning Crescent, 2% of the Moon is Illuminated
Sep 27
Waning Crescent
Sep 28
New
Oct 5
First Quarter
Oct 13
Full
Oct 21
Last Quarter

Hourly Weather History & Observations

Time (CDT) Temp. Heat Index Dew Point Humidity Pressure Visibility Wind Dir Wind Speed Gust Speed Precip Events Conditions
12:53 AM 82.0 °F 83.8 °F 64.9 °F 56% 29.79 in 10.0 mi South 11.5 mph - N/A   Clear
1:53 AM 81.0 °F 82.5 °F 64.0 °F 56% 29.79 in 10.0 mi South 13.8 mph - N/A   Clear
2:53 AM 80.1 °F 81.7 °F 64.0 °F 58% 29.78 in 10.0 mi South 12.7 mph - N/A   Clear
3:53 AM 78.1 °F - 63.0 °F 60% 29.79 in 10.0 mi South 13.8 mph - N/A   Clear
4:53 AM 77.0 °F - 64.0 °F 64% 29.79 in 10.0 mi South 15.0 mph - N/A   Clear
5:53 AM 75.0 °F - 66.0 °F 73% 29.81 in 10.0 mi South 12.7 mph - N/A   Clear
6:53 AM 73.9 °F - 66.9 °F 79% 29.81 in 10.0 mi South 13.8 mph - N/A   Clear
7:53 AM 75.0 °F - 68.0 °F 79% 29.81 in 10.0 mi South 13.8 mph - N/A   Clear
8:53 AM 77.0 °F - 69.1 °F 76% 29.82 in 10.0 mi South 17.3 mph - N/A   Partly Cloudy
9:53 AM 80.1 °F 82.9 °F 69.1 °F 69% 29.83 in 10.0 mi South 17.3 mph - N/A   Partly Cloudy
10:53 AM 82.9 °F 85.8 °F 68.0 °F 60% 29.83 in 10.0 mi South 16.1 mph - N/A   Partly Cloudy
11:53 AM 87.1 °F 89.9 °F 66.9 °F 51% 29.81 in 10.0 mi South 16.1 mph - N/A   Partly Cloudy
12:53 PM 89.1 °F 91.3 °F 66.0 °F 46% 29.79 in 10.0 mi South 16.1 mph - N/A   Partly Cloudy
1:53 PM 93.0 °F 94.6 °F 64.0 °F 38% 29.75 in 10.0 mi SSW 19.6 mph 25.3 mph N/A   Partly Cloudy
2:53 PM 93.9 °F 94.0 °F 61.0 °F 33% 29.72 in 10.0 mi South 18.4 mph 21.9 mph N/A   Partly Cloudy
3:53 PM 93.9 °F 93.2 °F 59.0 °F 31% 29.70 in 10.0 mi SSW 15.0 mph 23.0 mph N/A   Partly Cloudy
4:53 PM 93.0 °F 95.0 °F 64.9 °F 39% 29.69 in 10.0 mi South 18.4 mph 27.6 mph N/A   Partly Cloudy
5:53 PM 91.9 °F 94.1 °F 64.9 °F 41% 29.69 in 10.0 mi South 15.0 mph 25.3 mph N/A   Partly Cloudy
6:53 PM 91.0 °F 92.6 °F 64.0 °F 41% 29.69 in 10.0 mi South 15.0 mph - N/A   Partly Cloudy
7:53 PM 89.1 °F 91.0 °F 64.9 °F 45% 29.71 in 10.0 mi SSE 10.4 mph - N/A   Partly Cloudy
8:53 PM 88.0 °F 90.7 °F 66.9 °F 49% 29.73 in 10.0 mi SSE 20.7 mph 29.9 mph N/A   Scattered Clouds
9:53 PM 84.9 °F 90.1 °F 71.1 °F 63% 29.74 in 10.0 mi South 18.4 mph 24.2 mph N/A   Partly Cloudy
10:53 PM 82.9 °F 87.0 °F 70.0 °F 65% 29.75 in 10.0 mi SSE 17.3 mph 26.5 mph N/A   Clear
11:53 PM 81.0 °F 84.9 °F 71.1 °F 72% 29.75 in 10.0 mi South 16.1 mph 25.3 mph N/A   Clear